• en Suisse
  • Liste des pays
  • À 7 jours
  • Température de l'eau
  • Carte satellitaire
  • Carte météo
  • Widgets météo
  • user-avatar
    Se connecter

    Météo par heure à Auckland

    Ce jour, 17 Novembre, Vendredi

    Heure Température Précipitation Vent Pression Humidité
    00:00 +12°C° 0 mm 2 m/s 765 mmHg 94%
    01:00 +12°C° 0 mm 2 m/s 764 mmHg 94%
    02:00 +12°C° 0 mm 2 m/s 764 mmHg 95%
    03:00 +12°C° 0 mm 2 m/s 764 mmHg 95%
    04:00 +12°C° 0 mm 2 m/s 764 mmHg 94%
    05:00 +12°C° 0 mm 2 m/s 764 mmHg 93%
    06:00 +12°C° 0 mm 2 m/s 763 mmHg 91%
    07:00 +14°C° 0 mm 3 m/s 763 mmHg 79%
    08:00 +17°C° 0 mm 3 m/s 763 mmHg 67%
    09:00 +19°C° 0 mm 3 m/s 763 mmHg 55%
    10:00 +21°C° 0 mm 4 m/s 763 mmHg 49%
    11:00 +22°C° 0 mm 4 m/s 763 mmHg 43%
    12:00 +23°C° 0 mm 5 m/s 763 mmHg 41%
    13:00 +23°C° 0 mm 5 m/s 762 mmHg 40%
    14:00 +23°C° 0 mm 5 m/s 762 mmHg 40%
    15:00 +23°C° 0 mm 6 m/s 761 mmHg 39%
    16:00 +22°C° 0 mm 6 m/s 761 mmHg 45%
    17:00 +21°C° 0 mm 6 m/s 761 mmHg 51%
    18:00 +18°C° 0 mm 7 m/s 761 mmHg 56%
    19:00 +17°C° 0 mm 7 m/s 761 mmHg 61%
    20:00 +15°C° 0 mm 6 m/s 761 mmHg 66%
    21:00 +14°C° 0 mm 6 m/s 761 mmHg 71%
    22:00 +14°C° 0 mm 6 m/s 761 mmHg 73%
    23:00 +14°C° 0 mm 5 m/s 761 mmHg 75%

    Demain, 18 Novembre, Samedi

    Heure Température Précipitation Vent Pression Humidité
    00:00 +13°C° 0 mm 4 m/s 761 mmHg 81%
    01:00 +14°C° 0 mm 5 m/s 761 mmHg 78%
    02:00 +14°C° 0 mm 5 m/s 761 mmHg 76%
    03:00 +14°C° 0 mm 6 m/s 760 mmHg 73%
    04:00 +14°C° 0 mm 6 m/s 760 mmHg 69%
    05:00 +15°C° 0 mm 7 m/s 760 mmHg 65%
    06:00 +15°C° 0 mm 7 m/s 760 mmHg 60%
    07:00 +16°C° 0 mm 7 m/s 760 mmHg 58%
    08:00 +17°C° 0 mm 7 m/s 761 mmHg 56%
    09:00 +19°C° 0 mm 6 m/s 761 mmHg 55%
    10:00 +19°C° 0 mm 6 m/s 760 mmHg 52%
    11:00 +20°C° 0 mm 6 m/s 760 mmHg 50%
    12:00 +20°C° 0 mm 6 m/s 760 mmHg 48%
    13:00 +21°C° 0 mm 6 m/s 760 mmHg 47%
    14:00 +21°C° 0 mm 6 m/s 759 mmHg 46%
    15:00 +21°C° 0 mm 6 m/s 759 mmHg 46%
    16:00 +20°C° 0,1 mm 6 m/s 759 mmHg 51%
    17:00 +19°C° 0,1 mm 6 m/s 759 mmHg 57%
    18:00 +16°C° 0,1 mm 6 m/s 759 mmHg 62%
    19:00 +15°C° 0,1 mm 6 m/s 760 mmHg 67%
    20:00 +14°C° 0,1 mm 7 m/s 760 mmHg 72%
    21:00 +12°C° 0,1 mm 7 m/s 761 mmHg 77%
    22:00 +12°C° 0,2 mm 8 m/s 761 mmHg 81%
    23:00 +11°C° 0,2 mm 8 m/s 761 mmHg 86%

    Après-demain, 19 Novembre, Dimanche

    Heure Température Précipitation Vent Pression Humidité
    00:00 +11°C° 0,2 mm 8 m/s 761 mmHg 90%
    01:00 +11°C° 0,1 mm 8 m/s 760 mmHg 90%
    02:00 +11°C° 0,1 mm 8 m/s 760 mmHg 91%
    03:00 +10°C° 0,1 mm 8 m/s 759 mmHg 92%
    04:00 +11°C° 0,1 mm 8 m/s 759 mmHg 89%
    05:00 +11°C° 0,1 mm 8 m/s 759 mmHg 86%
    06:00 +11°C° 0,1 mm 7 m/s 759 mmHg 83%
    07:00 +12°C° 0,1 mm 7 m/s 759 mmHg 82%
    08:00 +12°C° 0,1 mm 7 m/s 760 mmHg 81%
    09:00 +12°C° 0,1 mm 7 m/s 760 mmHg 80%
    10:00 +14°C° 0 mm 6 m/s 760 mmHg 74%
    11:00 +15°C° 0 mm 6 m/s 759 mmHg 68%
    12:00 +16°C° 0 mm 5 m/s 759 mmHg 62%
    13:00 +19°C° 0 mm 5 m/s 759 mmHg 55%
    14:00 +21°C° 0 mm 5 m/s 759 mmHg 49%
    15:00 +23°C° 0 mm 5 m/s 758 mmHg 42%
    16:00 +22°C° 0 mm 5 m/s 758 mmHg 46%
    17:00 +21°C° 0 mm 5 m/s 758 mmHg 50%
    18:00 +20°C° 0 mm 5 m/s 758 mmHg 54%
    19:00 +19°C° 0 mm 5 m/s 758 mmHg 54%
    20:00 +17°C° 0 mm 5 m/s 759 mmHg 55%
    21:00 +15°C° 0 mm 5 m/s 759 mmHg 56%
    22:00 +14°C° 0 mm 5 m/s 759 mmHg 58%
    23:00 +13°C° 0 mm 5 m/s 760 mmHg 61%

    20 Novembre, Lundi

    Heure Température Précipitation Vent Pression Humidité
    00:00 +11°C° 0 mm 6 m/s 760 mmHg 64%
    01:00 +12°C° 0 mm 5 m/s 760 mmHg 67%
    02:00 +10°C° 0 mm 5 m/s 760 mmHg 71%
    03:00 +11°C° 0 mm 4 m/s 759 mmHg 74%
    04:00 +10°C° 0 mm 5 m/s 760 mmHg 73%
    05:00 +10°C° 0 mm 5 m/s 760 mmHg 72%
    06:00 +12°C° 0 mm 5 m/s 760 mmHg 71%
    07:00 +14°C° 0 mm 4 m/s 760 mmHg 64%
    08:00 +17°C° 0 mm 4 m/s 760 mmHg 57%
    09:00 +19°C° 0 mm 4 m/s 761 mmHg 50%
    10:00 +21°C° 0 mm 4 m/s 761 mmHg 46%
    11:00 +24°C° 0 mm 3 m/s 761 mmHg 41%
    12:00 +26°C° 0 mm 3 m/s 760 mmHg 37%
    13:00 +26°C° 0 mm 4 m/s 760 mmHg 39%
    14:00 +25°C° 0 mm 4 m/s 760 mmHg 41%
    15:00 +25°C° 0 mm 4 m/s 760 mmHg 42%
    16:00 +23°C° 0 mm 4 m/s 760 mmHg 46%
    17:00 +22°C° 0 mm 4 m/s 760 mmHg 49%
    18:00 +20°C° 0 mm 3 m/s 760 mmHg 53%
    19:00 +19°C° 0 mm 3 m/s 760 mmHg 60%
    20:00 +17°C° 0 mm 2 m/s 761 mmHg 67%
    21:00 +15°C° 0 mm 2 m/s 761 mmHg 74%
    22:00 +15°C° 0 mm 2 m/s 762 mmHg 74%
    23:00 +15°C° 0 mm 2 m/s 762 mmHg 73%

    21 Novembre, Mardi

    Heure Température Précipitation Vent Pression Humidité
    00:00 +15°C° 0 mm 2 m/s 762 mmHg 72%
    01:00 +14°C° 0 mm 2 m/s 762 mmHg 74%
    02:00 +14°C° 0 mm 2 m/s 762 mmHg 77%
    03:00 +13°C° 0 mm 2 m/s 762 mmHg 79%
    04:00 +13°C° 0 mm 2 m/s 762 mmHg 79%
    05:00 +13°C° 0 mm 2 m/s 762 mmHg 78%
    06:00 +14°C° 0 mm 2 m/s 762 mmHg 77%
    07:00 +17°C° 0 mm 2 m/s 763 mmHg 67%
    08:00 +20°C° 0 mm 1 m/s 763 mmHg 56%
    09:00 +23°C° 0 mm 1 m/s 763 mmHg 45%
    10:00 +24°C° 0 mm 2 m/s 763 mmHg 43%
    11:00 +25°C° 0 mm 3 m/s 763 mmHg 40%
    12:00 +26°C° 0 mm 4 m/s 763 mmHg 37%
    13:00 +26°C° 0 mm 4 m/s 763 mmHg 39%
    14:00 +25°C° 0 mm 4 m/s 762 mmHg 41%
    15:00 +25°C° 0 mm 5 m/s 762 mmHg 43%
    16:00 +23°C° 0 mm 5 m/s 762 mmHg 51%
    17:00 +21°C° 0 mm 4 m/s 762 mmHg 59%
    18:00 +20°C° 0 mm 4 m/s 763 mmHg 67%
    19:00 +19°C° 0 mm 3 m/s 763 mmHg 72%
    20:00 +18°C° 0 mm 3 m/s 764 mmHg 76%
    21:00 +16°C° 0 mm 2 m/s 764 mmHg 81%
    22:00 +16°C° 0 mm 2 m/s 764 mmHg 79%
    23:00 +16°C° 0 mm 3 m/s 764 mmHg 77%

    22 Novembre, Mercredi

    Heure Température Précipitation Vent Pression Humidité
    00:00 +16°C° 0 mm 3 m/s 764 mmHg 76%
    01:00 +16°C° 0 mm 3 m/s 764 mmHg 77%
    02:00 +16°C° 0 mm 3 m/s 764 mmHg 78%
    03:00 +16°C° 0 mm 3 m/s 764 mmHg 79%
    04:00 +14°C° 0,1 mm 4 m/s 764 mmHg 82%
    05:00 +14°C° 0,1 mm 4 m/s 765 mmHg 86%
    06:00 +13°C° 0,1 mm 4 m/s 765 mmHg 90%
    07:00 +14°C° 0,1 mm 4 m/s 765 mmHg 85%
    08:00 +16°C° 0,1 mm 3 m/s 766 mmHg 80%
    09:00 +17°C° 0,1 mm 3 m/s 766 mmHg 75%
    10:00 +19°C° 0 mm 3 m/s 766 mmHg 65%
    11:00 +21°C° 0 mm 2 m/s 766 mmHg 54%
    12:00 +23°C° 0 mm 2 m/s 765 mmHg 43%
    13:00 +23°C° 0 mm 2 m/s 766 mmHg 48%
    14:00 +21°C° 0 mm 2 m/s 766 mmHg 52%
    15:00 +20°C° 0 mm 2 m/s 766 mmHg 56%
    16:00 +20°C° 0 mm 2 m/s 766 mmHg 60%
    17:00 +19°C° 0 mm 2 m/s 766 mmHg 63%
    18:00 +19°C° 0 mm 2 m/s 766 mmHg 67%
    19:00 +18°C° 0 mm 2 m/s 767 mmHg 72%
    20:00 +17°C° 0 mm 2 m/s 767 mmHg 78%
    21:00 +16°C° 0 mm 2 m/s 768 mmHg 83%
    22:00 +15°C° 0 mm 2 m/s 768 mmHg 85%
    23:00 +15°C° 0 mm 2 m/s 768 mmHg 88%
    Voir plus